Vorticity
nan nan nan nan nan nan nan nan nan nan nan nan nan nan nan nan nan nan nan nan nan nan nan nan nan nan nan nan nan nan nan nan nan nan nan nan nan nan nan nan nan nan nan nan nan nan nan
nan 6 6 5 5 7 6 6 7 7 7 8 8 7 8 10 9 8 7 6 7 6 6 5 7 10 10 5 8 6 7 5 8 11 8 7 7 5 7 9 7 8 9 10 6 4 nan
nan 6 5 6 6 6 6 6 7 7 8 7 7 9 8 9 10 8 6 6 6 7 9 9 11 10 7 7 5 8 9 8 5 10 9 5 6 10 7 8 8 9 6 7 9 7 nan
nan 5 5 5 5 5 6 6 6 6 8 8 7 7 8 9 9 8 6 6 7 8 12 15 11 11 6 12 5 5 9 10 8 8 9 8 5 8 9 8 9 7 9 9 9 6 nan
nan 6 6 6 5 5 5 6 6 7 7 8 7 7 9 9 8 9 8 8 12 13 10 10 7 6 10 8 7 7 7 4 11 18 11 3 9 8 10 7 4 9 10 8 13 8 nan
nan 6 6 6 5 5 5 6 6 7 6 8 8 8 9 10 9 8 13 17 16 11 13 8 3 5 9 7 9 6 11 11 16 8 5 5 9 6 10 15 8 4 8 10 11 9 nan
nan 6 6 6 5 6 5 7 6 7 7 8 9 9 8 10 11 12 15 14 11 12 10 8 5 6 5 11 14 10 11 16 10 5 5 12 13 7 5 9 13 10 9 8 10 11 nan
nan 5 6 6 6 5 5 6 7 7 8 8 9 8 9 12 13 15 11 9 10 6 9 10 9 8 9 5 4 12 15 16 12 7 4 15 10 8 9 8 11 6 5 5 10 13 nan
nan 6 6 6 6 5 6 5 6 8 9 9 8 8 10 15 16 12 9 8 8 8 11 7 11 9 9 8 10 8 9 16 11 5 7 9 11 10 5 6 6 10 9 7 8 7 nan
nan 5 6 6 6 6 6 6 6 8 8 8 9 9 12 17 13 9 10 11 7 8 9 9 8 10 8 9 9 8 9 10 12 11 6 7 11 9 6 6 6 9 10 11 8 8 nan
nan 6 6 5 6 6 6 7 8 8 8 9 9 13 18 16 9 8 11 9 6 7 6 11 10 10 9 13 5 5 13 8 13 11 7 9 12 7 7 8 5 9 11 8 7 8 nan
nan 6 6 6 5 6 6 7 7 8 8 9 12 19 20 11 7 10 11 6 6 10 6 8 11 9 12 10 8 10 9 10 6 6 13 12 7 9 8 12 14 8 3 7 10 9 nan
nan 7 6 6 5 6 6 6 7 7 8 9 19 26 14 6 10 11 5 5 12 7 7 9 10 10 8 7 11 10 12 11 8 9 8 6 7 9 9 8 9 10 7 6 8 10 nan
nan 6 6 5 6 5 6 7 7 8 9 14 22 15 8 7 10 7 5 8 10 8 10 10 8 9 10 8 9 9 10 8 8 7 11 9 8 5 10 13 9 5 9 10 11 7 nan
nan 6 6 6 5 6 6 7 8 8 9 20 16 5 8 10 9 6 8 10 11 8 9 9 7 8 9 11 9 7 9 9 11 7 5 7 9 7 10 9 12 10 9 10 7 8 nan
nan 6 6 5 5 6 6 7 8 8 14 19 12 9 7 10 11 9 8 7 9 10 8 8 9 10 9 8 8 9 9 9 9 11 9 9 6 9 10 5 10 15 9 6 9 11 nan
nan 7 6 5 5 6 6 6 7 8 20 19 7 10 8 10 11 10 9 9 7 11 8 9 9 9 10 8 9 11 7 7 9 9 13 9 8 12 10 10 7 6 8 9 13 8 nan
nan 7 5 6 5 6 6 7 7 11 16 15 10 8 10 9 9 8 9 11 8 11 9 8 9 11 11 7 8 11 11 9 10 7 7 9 9 10 8 9 9 11 10 8 9 7 nan
nan 6 5 6 5 6 7 7 8 13 18 12 9 10 9 9 10 8 10 11 11 9 10 10 9 9 11 9 8 11 8 14 12 10 13 9 7 9 6 8 13 13 7 4 2 12 nan
nan 6 6 6 5 5 7 7 8 19 18 10 10 9 9 9 9 9 10 11 11 9 10 11 10 10 10 9 11 12 7 13 12 9 10 11 12 12 7 8 12 13 13 6 -1 -0 nan
nan 7 6 6 5 6 7 7 11 21 17 5 11 12 10 12 9 8 9 10 10 10 8 9 12 11 10 8 9 9 9 7 10 9 7 11 10 9 10 11 10 10 15 15 8 2 nan
nan 6 7 5 6 7 7 8 13 19 13 10 11 7 10 11 11 9 9 11 10 8 10 12 9 10 12 10 10 9 8 10 7 8 9 10 12 7 8 11 10 10 11 15 16 13 nan
nan 6 7 6 5 4 6 8 13 18 12 8 7 11 11 9 13 11 9 8 8 7 11 11 10 10 8 7 12 14 12 16 15 8 8 11 8 8 7 9 10 13 20 13 8 16 nan
nan 8 7 6 5 5 6 8 9 16 17 11 10 10 9 12 10 9 10 9 7 10 11 8 12 10 7 11 11 8 9 13 10 9 13 9 8 9 10 8 12 13 12 18 11 9 nan
nan 7 7 6 6 7 6 6 7 9 14 13 12 10 9 11 8 9 9 10 10 12 11 9 9 8 10 13 10 8 6 7 9 12 10 10 11 11 12 7 6 12 12 13 10 12 nan
nan 7 7 6 6 7 6 6 10 11 6 7 11 10 13 11 7 10 10 11 11 11 9 9 9 11 13 10 12 12 9 8 9 10 11 9 8 11 9 10 10 8 8 10 10 11 nan
nan 8 7 6 7 7 6 7 9 12 8 6 9 9 11 9 11 11 11 10 9 11 10 6 8 15 15 12 11 10 11 11 12 10 8 7 11 10 9 6 10 14 12 9 8 10 nan
nan 9 8 7 8 7 7 8 10 12 7 7 11 10 9 9 11 9 11 10 10 10 10 11 13 9 13 13 10 11 12 10 9 12 13 9 8 8 10 7 13 14 11 10 4 9 nan
nan nan nan nan nan nan nan nan nan nan nan nan nan nan nan nan nan nan nan nan nan nan nan nan nan nan nan nan nan nan nan nan nan nan nan nan nan nan nan nan nan nan nan nan nan nan nan
CAPE
3 6 8 5 5 8 17 10 15 15 17 23 28 45 35 22 5 14 17 12 30 91 146 227 220 212 4 0 0 0 94 80 0 25 66 13 0 8 22 8 0 0 7 0 70 41 11
0 4 6 5 5 7 10 12 13 17 16 16 16 33 43 17 6 5 7 5 6 60 193 197 191 121 3 0 1 16 3 0 0 13 81 72 0 0 23 28 4 0 1 12 31 61 13
0 1 6 5 4 5 9 7 5 16 16 24 10 20 29 42 9 6 1 3 14 62 166 173 181 21 0 0 0 3 0 2 0 0 10 26 14 1 1 21 0 0 9 0 12 52 19
0 0 3 5 3 7 8 8 16 7 21 19 23 11 16 28 32 3 3 1 26 61 65 107 125 0 0 0 0 5 0 0 0 0 0 15 43 14 3 0 0 0 1 5 4 4 2
0 1 1 2 2 5 7 14 12 15 17 34 16 13 12 22 25 21 1 0 14 22 21 32 0 0 0 2 8 0 0 0 0 47 82 10 73 23 0 10 4 3 1 0 0 0 19
0 0 2 3 2 2 6 12 16 21 19 29 25 22 4 9 21 15 8 0 0 1 0 0 0 0 0 3 10 6 0 0 41 79 47 111 63 6 0 10 1 1 0 0 0 9 7
0 0 1 4 4 2 5 9 10 14 21 27 30 25 9 16 9 7 0 0 0 0 0 0 0 0 0 0 15 26 11 31 77 43 8 10 25 11 0 0 0 0 0 0 0 0 18
0 0 0 3 3 2 4 5 5 20 16 31 27 22 3 8 6 8 0 0 0 0 0 0 0 0 0 1 0 34 29 59 36 26 5 14 7 0 0 0 0 0 0 0 0 0 0
1 0 0 1 2 2 4 7 11 6 15 20 19 5 3 10 9 0 0 0 0 0 0 0 0 0 0 3 5 9 2 8 26 6 8 8 2 4 2 0 0 0 0 0 0 0 0
0 0 0 0 2 1 5 7 9 8 15 11 12 8 3 14 0 0 0 0 0 0 0 0 0 0 6 10 9 0 0 0 12 2 7 11 0 10 7 0 0 0 0 0 0 0 0
0 0 0 0 1 1 4 6 8 6 4 10 12 4 3 13 0 0 0 0 0 0 0 0 0 0 5 0 0 1 0 36 5 13 15 9 10 24 5 2 0 0 0 0 0 0 0
0 0 0 0 0 1 3 4 8 8 7 10 10 4 5 7 0 0 0 0 0 0 0 0 0 0 1 11 5 1 23 27 41 11 0 0 0 2 3 0 0 0 0 0 0 0 0
0 0 0 0 1 1 2 3 5 2 4 6 7 4 1 0 0 0 0 0 0 0 0 0 0 0 0 0 3 4 1 27 10 0 1 14 1 0 0 2 0 0 0 0 0 0 1
0 0 0 0 0 0 1 1 7 8 6 6 0 1 0 0 0 0 0 0 0 0 0 0 1 0 0 0 5 9 3 9 2 0 3 0 17 0 0 0 0 0 0 0 0 0 0
0 0 0 0 0 0 0 1 4 8 7 4 0 0 0 0 0 0 0 0 0 0 0 1 0 0 0 0 0 6 5 10 0 0 0 0 4 0 0 0 0 0 0 0 0 0 0
0 0 0 0 0 0 0 1 4 7 3 0 0 0 0 0 0 0 0 0 0 0 0 0 0 1 0 2 0 3 4 0 0 0 0 0 1 1 1 0 0 0 0 0 0 0 0
0 0 0 0 0 0 0 0 4 5 0 0 0 0 0 0 0 0 0 0 0 0 0 0 0 0 0 0 0 0 0 0 0 0 0 0 0 4 0 0 9 0 0 0 0 0 0
0 0 0 0 0 0 0 0 3 2 0 0 0 0 0 0 7 0 0 0 0 0 0 0 0 0 0 0 0 0 0 0 0 0 0 0 0 2 1 0 0 1 2 0 0 0 0
0 0 0 0 0 0 0 0 2 0 0 0 0 1 0 0 0 0 0 0 0 0 0 0 0 0 0 0 0 0 0 0 0 0 0 0 0 0 1 0 0 4 1 2 0 0 0
0 0 0 0 0 0 0 0 0 0 0 0 0 0 15 10 0 0 0 0 0 0 0 0 0 0 0 0 0 0 0 0 0 0 0 0 0 0 0 0 0 3 2 0 1 4 0
0 0 0 0 0 0 0 0 0 0 0 0 0 0 0 1 2 0 0 0 0 0 0 0 0 0 0 0 0 0 0 0 0 4 0 0 0 0 0 0 0 0 0 0 1 0 0
0 0 1 0 0 0 0 0 0 0 0 0 0 0 0 0 0 0 0 0 5 1 0 0 0 0 0 0 0 0 0 0 0 0 0 0 0 0 0 0 0 0 0 0 0 1 1
0 1 0 0 0 0 0 0 0 0 0 0 0 0 0 0 0 0 0 0 0 0 1 0 0 0 0 0 0 0 0 0 0 0 0 0 0 0 0 0 0 0 0 0 0 0 0
3 3 0 0 0 0 0 0 0 0 0 0 0 0 0 0 0 0 0 0 0 0 1 0 0 0 0 0 0 0 0 0 0 0 0 0 0 0 0 0 0 0 0 0 0 0 0
4 2 0 0 0 0 0 0 0 0 0 0 0 0 0 0 0 0 0 0 0 0 0 0 1 0 0 0 0 0 0 0 0 0 0 0 0 0 0 0 0 0 0 0 0 0 0
8 2 1 0 1 0 1 0 0 0 0 0 0 0 0 0 0 0 0 0 0 0 0 0 0 0 0 0 0 0 0 0 0 0 0 0 0 0 0 0 0 0 0 0 0 0 0
9 2 0 0 1 2 2 0 0 0 0 0 0 0 0 0 0 0 0 0 0 0 0 0 0 0 0 0 1 0 0 0 0 0 0 2 0 0 0 0 0 0 0 0 0 0 0
13 6 0 0 1 4 1 0 0 0 0 0 0 0 0 0 0 0 0 0 0 0 0 0 0 2 1 0 5 0 0 0 0 0 0 0 0 0 0 0 0 0 0 0 0 0 0
18 6 0 1 5 3 1 1 0 0 0 0 0 0 0 0 0 0 0 0 0 0 0 0 0 6 10 6 0 0 0 0 0 0 0 0 0 0 0 0 0 0 0 0 0 0 0